sat.trackr.live / text

‹ back to catalog

STARLINK-5658

NORAD 55338 · 2023-013H

PAYLOAD ACTIVE UNKNOWN

§ Identity

Operator
Country
US
Launch date
2023-01-26
Launch site
AFETR
Launch vehicle
Mass (kg)
RCS (m²)

Purposes: comms

External: N2YO · Heavens-Above · Gunter

§ Orbital elements

Epoch: 2026-05-24T22:52:56.453952Z

Period
94.27 min
Inclination
43.0019°
Eccentricity
0.0001309
Mean motion
15.27586999 rev/d
Perigee alt
482.1 km
Apogee alt
483.9 km
Semi-major
6,861.2 km
B*
4.0079e-5
RAAN
232.9994°
Arg perigee
274.6806°
Mean anomaly
85.3896°
Rev number
18,333

§ Raw data

STARLINK-56581 55338U 23013H   26144.95343118  .00000841  00000+0  40079-4 0  99902 55338  43.0019 232.9994 0001309 274.6806  85.3896 15.27586999183335

JSON: /api/v1/satellites/55338 · /tle

For live sub-satellite position, see the globe view (requires WebGL).

§ Visibility from observer

Set your observer location to see the next 7 days of passes ≥ 10°. The values pass through the URL so the page stays shareable.

No JS? Fill the form by hand. The geolocation button needs JavaScript.